[[{"header":{"parameterUnit":"m.s-1","parameterCategory":1,"la1":30.2991,"la2":30.254,"lo1":-89.0895,"lo2":-89.0444,"dy":0.0017,"dx":0.0017,"nx":28,"ny":28,"refTime":"2025-08-16T21:00:00:Z","depth":0,"parameterNumber":2,"parameterNumberName":"U-component_of_WINDS"},"data":[0,0,0,0,0,0,0,0,0,0,0,0,0,0,0,0,0,0,0,0,0,0,0,0,0,0,0,0,0,0,0,0,0,0,0,0,0,0,0,0,0,0,0,0,0,0,0,0,0,0,0,0,0,0,0,0,0,0,0.0989,0.0989,0,0.0952,0.0951,0.0951,0.092,0.092,0.0919,0.0919,0.0882,0.0881,0.088,0,0,0,0,0,0,0,0,0,0,0,0,0,0.1036,0.1035,0.0989,0.0989,0.0988,0.0952,0.0951,0.0951,0.092,0.092,0.0919,0.0919,0.0882,0.0881,0.088,0,0,0,0,0,0,0,0,0,0,0,0,0,0.1009,0.1035,0.0989,0.0969,0.0966,0.0952,0.0951,0.0951,0.092,0.092,0.0919,0.0919,0.0882,0.0881,0.088,0.0884,0,0,0.0877,0.0876,0,0,0,0,0,0,0,0,0.1011,0.1007,0.0972,0.097,0.0967,0.094,0.0954,0.0928,0.092,0.0938,0.0919,0.0918,0.0902,0.0899,0.0893,0.0882,0.088,0.0877,0.0876,0.0876,0.0875,0,0,0,0,0,0,0,0.1012,0.1009,0.0975,0.0972,0.0969,0.0962,0.0957,0.0949,0.0923,0.0936,0.0934,0.093,0.09,0.0894,0.0892,0.088,0.0877,0.0876,0.0875,0.0875,0.0872,0.0873,0,0,0,0,0,0,0.1017,0.101,0.0976,0.0973,0.0988,0.0961,0.0956,0.0949,0.0923,0.0918,0.093,0.0928,0.0896,0.0893,0.089,0.0894,0.0876,0.0875,0.0874,0.0872,0.0872,0.0873,0,0,0,0,0,0,0.1018,0.1015,0.0977,0.0991,0.0986,0.0961,0.0953,0.0949,0.0943,0.0918,0.0914,0.0929,0.0896,0.0892,0.0886,0.0893,0.0874,0.0873,0.0871,0.0872,0.0873,0.0902,0,0,0,0,0,0,0.102,0.1015,0.1016,0.0992,0.0985,0.0973,0.0954,0.0949,0.0941,0.0938,0.0916,0.0912,0.0895,0.0888,0.0885,0.0891,0.0873,0.087,0.0871,0.0872,0.09,0.0903,0.0906,0,0,0,0,0,0.1022,0.1025,0.1016,0.1012,0.0985,0.0973,0.097,0.095,0.0942,0.0942,0.0927,0.0912,0.0892,0.0887,0.0884,0.089,0.087,0.0871,0.0872,0.0899,0.0903,0.0906,0,0,0,0,0,0,0.105,0.1021,0.1011,0.1006,0.0993,0.0968,0.0968,0.0955,0.0944,0.0942,0.0918,0.0913,0.0911,0.0899,0.0894,0.0893,0.0879,0.088,0.09,0.0904,0.0907,0.091,0.0872,0,0,0,0,0,0.1056,0.1048,0.1023,0.1022,0.1016,0.0994,0.0987,0.0974,0.0959,0.0953,0.0937,0.0923,0.0914,0.0908,0.0898,0.0898,0.0894,0.0901,0.0904,0.0906,0.0908,0.0909,0.0912,0.0877,0.0877,0.0877,0,0,0.1068,0.1051,0.1048,0.1027,0.1015,0.1009,0.0989,0.0982,0.0977,0.0952,0.0946,0.0934,0.0917,0.0914,0.0913,0.0905,0.0916,0.0908,0.091,0.091,0.091,0.0914,0.0917,0.0878,0.0878,0.0877,0,0,0.1086,0.1072,0.107,0.1059,0.1041,0.1026,0.1026,0.1004,0.0995,0.0988,0.097,0.0964,0.0948,0.0937,0.093,0.0947,0.0933,0.0944,0.0961,0.0962,0.0965,0.0967,0.0975,0.0977,0.0945,0.0945,0.0945,0,0.1104,0.1092,0.1071,0.1066,0.1059,0.1036,0.1034,0.1024,0.1004,0.0999,0.0991,0.0972,0.0959,0.0955,0.0959,0.0953,0.0953,0.0947,0.0966,0.0968,0.097,0.0977,0.098,0.0946,0.0946,0.0946,0.0946,0,0.1115,0.1108,0.1108,0.109,0.1082,0.1079,0.1059,0.1054,0.1041,0.1028,0.1023,0.1006,0.0994,0.0991,0.0978,0.0986,0.0982,0.097,0.0956,0.0975,0.0982,0.0984,0.0949,0.0948,0.0948,0.0947,0,0,0.115,0.1121,0.1122,0.1114,0.1093,0.1087,0.1084,0.1071,0.1068,0.1055,0.1053,0.1041,0.103,0.1022,0.1008,0.1009,0.1026,0.0997,0.0997,0.1004,0.1035,0.1045,0.1048,0.1016,0.1017,0.1017,0.1037,0,0.1166,0.1158,0.114,0.1138,0.1132,0.1111,0.1108,0.1096,0.1084,0.1077,0.1064,0.1057,0.1042,0.1037,0.1037,0.1024,0.1032,0.1022,0.1015,0.1015,0.1021,0.1051,0.1061,0.1081,0.1039,0.1039,0.104,0,0.1183,0.1173,0.1171,0.1152,0.1149,0.1146,0.1135,0.1128,0.1115,0.1106,0.1097,0.1082,0.1079,0.1065,0.1061,0.1055,0.1051,0.1044,0.1044,0.1044,0.1029,0.1053,0.1086,0.109,0.1043,0.1043,0.1042,0,0.1211,0.1196,0.1193,0.1187,0.1165,0.1164,0.1155,0.114,0.1135,0.1124,0.1121,0.111,0.1105,0.1098,0.1081,0.1072,0.1079,0.1064,0.1073,0.1074,0.1076,0.1076,0.1111,0.1072,0.1072,0.1072,0.1071,0,0.1232,0.1231,0.1206,0.1204,0.1204,0.1184,0.1184,0.1173,0.1161,0.1157,0.1138,0.1136,0.1113,0.1108,0.1095,0.1094,0.1092,0.1085,0.1082,0.1088,0.1089,0.1086,0.1085,0.1072,0.1072,0.1072,0.1072,0,0.1262,0.1245,0.1241,0.1221,0.1216,0.1217,0.12,0.1198,0.1185,0.1181,0.1179,0.1159,0.1153,0.1135,0.1124,0.1115,0.1119,0.1112,0.1124,0.1122,0.1133,0.1133,0.1168,0.1172,0.1129,0.1129,0.113,0,0.1277,0.1277,0.1257,0.1254,0.1245,0.124,0.1234,0.1215,0.121,0.1195,0.1196,0.1188,0.1181,0.1172,0.1157,0.1148,0.1142,0.1155,0.1141,0.1147,0.1144,0.1145,0.1146,0.1158,0.1159,0.1159,0.116,0,0.1306,0.1298,0.1291,0.1281,0.1275,0.1267,0.1257,0.1256,0.1234,0.123,0.1223,0.1218,0.1207,0.12,0.119,0.1181,0.1168,0.1164,0.1166,0.1173,0.1181,0.1178,0.1134,0.1164,0.1163,0.1163,0.1163,0.1163,0.133,0.133,0.1316,0.131,0.1301,0.1293,0.1291,0.1278,0.1272,0.1262,0.1251,0.1247,0.1234,0.1219,0.1212,0.1208,0.1201,0.1203,0.1204,0.1206,0.1209,0.118,0.1206,0.1206,0.1206,0.1206,0.1206,0,0.1359,0.135,0.1344,0.1332,0.1327,0.1315,0.1304,0.1301,0.1297,0.1287,0.1281,0.1274,0.1268,0.1253,0.1245,0.1246,0.1239,0.1245,0.1245,0.1244,0.1215,0.1215,0.125,0.125,0.125,0.125,0.125,0.125,0.1374,0.1373,0.1364,0.1359,0.135,0.1345,0.1341,0.1334,0.1326,0.132,0.1314,0.1305,0.1293,0.1285,0.1279,0.1275,0.1274,0.1281,0.1276,0.1249,0.1245,0.1241,0.1241,0.1281,0.1281,0.1304,0.1305,0.1305]},{"header":{"parameterUnit":"m.s-1","parameterCategory":1,"la1":30.2991,"la2":30.254,"lo1":-89.0895,"lo2":-89.0444,"dy":0.0017,"dx":0.0017,"nx":28,"ny":28,"refTime":"2025-08-16T21:00:00:Z","depth":0,"parameterNumber":3,"parameterNumberName":"V-component_of_WINDS"},"data":[0,0,0,0,0,0,0,0,0,0,0,0,0,0,0,0,0,0,0,0,0,0,0,0,0,0,0,0,0,0,0,0,0,0,0,0,0,0,0,0,0,0,0,0,0,0,0,0,0,0,0,0,0,0,0,0,0,0,-2.346,-2.346,0,-2.3465,-2.3465,-2.3466,-2.3415,-2.3414,-2.3412,-2.3411,-2.3415,-2.3416,-2.3418,0,0,0,0,0,0,0,0,0,0,0,0,0,-2.3405,-2.3406,-2.346,-2.346,-2.346,-2.3465,-2.3465,-2.3466,-2.3415,-2.3414,-2.3412,-2.341,-2.3415,-2.3416,-2.3418,0,0,0,0,0,0,0,0,0,0,0,0,0,-2.3422,-2.3407,-2.346,-2.3436,-2.3434,-2.3465,-2.3465,-2.3466,-2.3416,-2.3414,-2.3412,-2.341,-2.3414,-2.3416,-2.3418,-2.3473,0,0,-2.3425,-2.3425,0,0,0,0,0,0,0,0,-2.3421,-2.3424,-2.3439,-2.3438,-2.3435,-2.3438,-2.3447,-2.3468,-2.3416,-2.3423,-2.3411,-2.3409,-2.3424,-2.3425,-2.3431,-2.3473,-2.3473,-2.3425,-2.3426,-2.3427,-2.3428,0,0,0,0,0,0,0,-2.342,-2.3423,-2.3462,-2.344,-2.3437,-2.3424,-2.3424,-2.3451,-2.3435,-2.3422,-2.3418,-2.342,-2.3423,-2.3429,-2.343,-2.3473,-2.3425,-2.3427,-2.3428,-2.3429,-2.3561,-2.3563,0,0,0,0,0,0,-2.3422,-2.3423,-2.3462,-2.3462,-2.3423,-2.3427,-2.3427,-2.3439,-2.3434,-2.3432,-2.3421,-2.3417,-2.3426,-2.3428,-2.343,-2.3494,-2.3427,-2.3429,-2.343,-2.3558,-2.3561,-2.3564,0,0,0,0,0,0,-2.3421,-2.3426,-2.3462,-2.3441,-2.3445,-2.343,-2.3444,-2.344,-2.3446,-2.3434,-2.3431,-2.3431,-2.3425,-2.3427,-2.3463,-2.3494,-2.343,-2.3432,-2.3556,-2.3559,-2.3562,-2.3622,0,0,0,0,0,0,-2.342,-2.3426,-2.3447,-2.3442,-2.3446,-2.3495,-2.3446,-2.3442,-2.345,-2.3445,-2.3442,-2.344,-2.3423,-2.346,-2.3465,-2.3495,-2.3433,-2.3553,-2.3557,-2.3561,-2.3618,-2.3627,-2.3636,0,0,0,0,0,-2.3418,-2.3463,-2.3448,-2.3453,-2.3472,-2.3496,-2.3499,-2.3479,-2.3453,-2.3474,-2.3466,-2.344,-2.349,-2.3464,-2.3469,-2.3501,-2.3551,-2.3556,-2.3561,-2.3614,-2.3625,-2.3636,0,0,0,0,0,0,-2.3471,-2.3462,-2.3445,-2.3491,-2.3495,-2.3488,-2.3513,-2.3493,-2.3504,-2.3498,-2.3473,-2.3473,-2.3513,-2.351,-2.3482,-2.3554,-2.3516,-2.3522,-2.3554,-2.3565,-2.3574,-2.3574,-2.3435,0,0,0,0,0,-2.3488,-2.3509,-2.35,-2.3541,-2.3544,-2.3528,-2.3538,-2.3523,-2.3526,-2.3527,-2.3522,-2.3526,-2.3542,-2.3553,-2.3568,-2.3617,-2.3616,-2.3641,-2.365,-2.3658,-2.3664,-2.369,-2.3701,-2.358,-2.358,-2.358,0,0,-2.3523,-2.3521,-2.3536,-2.3551,-2.3553,-2.3575,-2.353,-2.3555,-2.3571,-2.3531,-2.3564,-2.3561,-2.3563,-2.3606,-2.3624,-2.3605,-2.3697,-2.3664,-2.3671,-2.3672,-2.3696,-2.3708,-2.3718,-2.3584,-2.3583,-2.3582,0,0,-2.3599,-2.3599,-2.3634,-2.3636,-2.3639,-2.3629,-2.3637,-2.3634,-2.363,-2.3663,-2.3633,-2.3652,-2.368,-2.3683,-2.3689,-2.3766,-2.3743,-2.3771,-2.3819,-2.3845,-2.3854,-2.3863,-2.389,-2.3901,-2.3777,-2.3777,-2.3777,0,-2.3642,-2.3675,-2.3654,-2.3681,-2.3689,-2.3654,-2.3688,-2.3692,-2.3699,-2.3705,-2.3683,-2.3719,-2.3718,-2.3761,-2.378,-2.3785,-2.3794,-2.3772,-2.3855,-2.3863,-2.387,-2.3896,-2.3907,-2.3781,-2.378,-2.378,-2.378,0,-2.3728,-2.3751,-2.3778,-2.3787,-2.3797,-2.3828,-2.3811,-2.3825,-2.3809,-2.3801,-2.3835,-2.3832,-2.3846,-2.3855,-2.3839,-2.3896,-2.3884,-2.3859,-2.382,-2.3886,-2.391,-2.392,-2.3786,-2.3785,-2.3784,-2.3783,0,0,-2.3836,-2.3834,-2.3844,-2.3848,-2.3849,-2.3866,-2.3895,-2.3909,-2.3921,-2.3927,-2.3951,-2.3976,-2.3953,-2.3959,-2.3943,-2.3966,-2.4028,-2.3938,-2.3938,-2.3955,-2.409,-2.4109,-2.4121,-2.4012,-2.4014,-2.4016,-2.409,0,-2.391,-2.396,-2.3943,-2.3993,-2.4014,-2.3982,-2.4007,-2.401,-2.4004,-2.402,-2.4012,-2.4031,-2.3999,-2.4002,-2.4023,-2.4016,-2.4055,-2.401,-2.4034,-2.4035,-2.4034,-2.4134,-2.4154,-2.4224,-2.4099,-2.4101,-2.4102,0,-2.4003,-2.4014,-2.4067,-2.4065,-2.4073,-2.4096,-2.4108,-2.4124,-2.4127,-2.412,-2.4127,-2.4107,-2.4135,-2.4097,-2.4135,-2.4105,-2.4114,-2.4111,-2.4114,-2.4115,-2.4073,-2.4138,-2.4246,-2.4257,-2.4117,-2.4116,-2.4115,0,-2.4077,-2.4105,-2.4141,-2.4145,-2.4143,-2.416,-2.416,-2.4161,-2.4171,-2.418,-2.4186,-2.4199,-2.4206,-2.4216,-2.42,-2.4174,-2.4241,-2.4201,-2.4236,-2.4236,-2.4251,-2.4251,-2.4363,-2.4257,-2.4257,-2.4257,-2.4256,0,-2.4161,-2.4195,-2.4174,-2.4196,-2.4233,-2.4212,-2.4249,-2.4245,-2.4247,-2.4267,-2.424,-2.4259,-2.4236,-2.4254,-2.4241,-2.4274,-2.4278,-2.4273,-2.4269,-2.4276,-2.4276,-2.4281,-2.4276,-2.4259,-2.4259,-2.4258,-2.4258,0,-2.4251,-2.4238,-2.4274,-2.427,-2.427,-2.4297,-2.4293,-2.4313,-2.4305,-2.4331,-2.4336,-2.4322,-2.4341,-2.4326,-2.4344,-2.4336,-2.4381,-2.437,-2.438,-2.4377,-2.4413,-2.441,-2.4532,-2.4547,-2.4432,-2.4433,-2.4434,0,-2.4305,-2.4331,-2.4329,-2.4341,-2.4343,-2.4363,-2.4373,-2.4353,-2.4365,-2.437,-2.4389,-2.4406,-2.4419,-2.4451,-2.4442,-2.4456,-2.4446,-2.4487,-2.4447,-2.4453,-2.4446,-2.4445,-2.4448,-2.4495,-2.4497,-2.4498,-2.4499,0,-2.4404,-2.4396,-2.4412,-2.4426,-2.4438,-2.4448,-2.4455,-2.4467,-2.4447,-2.4461,-2.448,-2.449,-2.4509,-2.4526,-2.4538,-2.4537,-2.4515,-2.4512,-2.452,-2.4527,-2.4532,-2.453,-2.4402,-2.4509,-2.4508,-2.4507,-2.4507,-2.4506,-2.4477,-2.4499,-2.4501,-2.452,-2.4523,-2.4531,-2.455,-2.4544,-2.456,-2.4574,-2.4562,-2.4585,-2.4587,-2.46,-2.4603,-2.4621,-2.4603,-2.4616,-2.4619,-2.4623,-2.4628,-2.4529,-2.4622,-2.4622,-2.4622,-2.4622,-2.4621,0,-2.4574,-2.4575,-2.4592,-2.4603,-2.4618,-2.4596,-2.4604,-2.4617,-2.4638,-2.4643,-2.4656,-2.4678,-2.4695,-2.4688,-2.4703,-2.4718,-2.4708,-2.4723,-2.4721,-2.4722,-2.4643,-2.4634,-2.473,-2.473,-2.473,-2.473,-2.473,-2.473,-2.4627,-2.4662,-2.4655,-2.4691,-2.4691,-2.4714,-2.472,-2.4727,-2.4731,-2.4757,-2.4771,-2.4767,-2.4767,-2.4781,-2.4795,-2.4793,-2.4799,-2.4817,-2.4811,-2.4738,-2.4727,-2.4717,-2.4708,-2.4819,-2.4819,-2.4889,-2.4889,-2.489]}]]